Previsão horária em Juliszew

Hoje, 24 Junho, Quinta-feira

Tempo Temperatura Precipitação Vento Pressão Humidade
00:00 +21°C° 0 mm 2 m/s 758 mmHg 88%
01:00 +21°C° 0 mm 2 m/s 758 mmHg 89%
02:00 +20°C° 0 mm 2 m/s 758 mmHg 90%
03:00 +20°C° 0 mm 2 m/s 758 mmHg 91%
04:00 +20°C° 0 mm 3 m/s 757 mmHg 92%
05:00 +20°C° 0 mm 3 m/s 757 mmHg 88%
06:00 +21°C° 0 mm 3 m/s 757 mmHg 83%
07:00 +22°C° 0 mm 4 m/s 757 mmHg 79%
08:00 +22°C° 0.8 mm 3 m/s 757 mmHg 81%
09:00 +24°C° 0.8 mm 3 m/s 757 mmHg 82%
10:00 +24°C° 0.8 mm 2 m/s 757 mmHg 83%
11:00 +26°C° 0.2 mm 3 m/s 757 mmHg 78%
12:00 +27°C° 0.2 mm 3 m/s 756 mmHg 72%
13:00 +29°C° 0.2 mm 3 m/s 755 mmHg 66%
14:00 +29°C° 0.6 mm 3 m/s 755 mmHg 64%
15:00 +30°C° 0.6 mm 3 m/s 754 mmHg 63%
16:00 +30°C° 0.6 mm 2 m/s 754 mmHg 61%
17:00 +29°C° 0.2 mm 2 m/s 754 mmHg 67%
18:00 +28°C° 0.2 mm 3 m/s 754 mmHg 72%
19:00 +27°C° 0.2 mm 3 m/s 753 mmHg 78%
20:00 +25°C° 0.4 mm 3 m/s 754 mmHg 84%
21:00 +22°C° 0.4 mm 4 m/s 754 mmHg 89%
22:00 +20°C° 0.4 mm 4 m/s 754 mmHg 95%
23:00 +19°C° 0 mm 4 m/s 754 mmHg 96%

Amanhã, 25 Junho, Sexta-feira

Tempo Temperatura Precipitação Vento Pressão Humidade
00:00 +18°C° 0 mm 4 m/s 754 mmHg 96%
01:00 +17°C° 0 mm 4 m/s 754 mmHg 97%
02:00 +17°C° 0 mm 4 m/s 754 mmHg 96%
03:00 +17°C° 0 mm 4 m/s 754 mmHg 95%
04:00 +17°C° 0 mm 3 m/s 754 mmHg 95%
05:00 +17°C° 0.1 mm 3 m/s 755 mmHg 93%
06:00 +17°C° 0.1 mm 3 m/s 755 mmHg 91%
07:00 +17°C° 0.1 mm 3 m/s 755 mmHg 89%
08:00 +18°C° 0 mm 4 m/s 755 mmHg 87%
09:00 +19°C° 0 mm 4 m/s 755 mmHg 84%
10:00 +19°C° 0 mm 5 m/s 756 mmHg 82%
11:00 +19°C° 0 mm 5 m/s 756 mmHg 80%
12:00 +20°C° 0 mm 4 m/s 756 mmHg 78%
13:00 +20°C° 0 mm 4 m/s 756 mmHg 77%
14:00 +20°C° 0.1 mm 4 m/s 756 mmHg 75%
15:00 +21°C° 0.1 mm 3 m/s 756 mmHg 74%
16:00 +21°C° 0.1 mm 3 m/s 756 mmHg 73%
17:00 +21°C° 0.1 mm 3 m/s 756 mmHg 75%
18:00 +20°C° 0.1 mm 3 m/s 756 mmHg 78%
19:00 +20°C° 0.1 mm 3 m/s 756 mmHg 81%
20:00 +18°C° 0 mm 3 m/s 756 mmHg 84%
21:00 +17°C° 0 mm 2 m/s 756 mmHg 88%
22:00 +16°C° 0 mm 2 m/s 757 mmHg 91%
23:00 +16°C° 0 mm 2 m/s 757 mmHg 92%

Depois de amanhã, 26 Junho, Sábado

Tempo Temperatura Precipitação Vento Pressão Humidade
00:00 +15°C° 0 mm 2 m/s 757 mmHg 93%
01:00 +14°C° 0 mm 3 m/s 757 mmHg 93%
02:00 +15°C° 0 mm 2 m/s 757 mmHg 93%
03:00 +15°C° 0 mm 2 m/s 757 mmHg 93%
04:00 +14°C° 0 mm 2 m/s 757 mmHg 93%
05:00 +16°C° 0 mm 2 m/s 758 mmHg 86%
06:00 +18°C° 0 mm 2 m/s 758 mmHg 80%
07:00 +19°C° 0 mm 2 m/s 758 mmHg 73%
08:00 +20°C° 0 mm 2 m/s 758 mmHg 68%
09:00 +23°C° 0 mm 2 m/s 758 mmHg 62%
10:00 +24°C° 0 mm 3 m/s 758 mmHg 57%
11:00 +25°C° 0 mm 3 m/s 758 mmHg 54%
12:00 +25°C° 0 mm 2 m/s 758 mmHg 51%
13:00 +26°C° 0 mm 2 m/s 758 mmHg 48%
14:00 +26°C° 0 mm 2 m/s 758 mmHg 49%
15:00 +26°C° 0 mm 2 m/s 757 mmHg 50%
16:00 +26°C° 0 mm 2 m/s 757 mmHg 51%
17:00 +25°C° 0 mm 2 m/s 757 mmHg 57%
18:00 +23°C° 0 mm 2 m/s 757 mmHg 62%
19:00 +21°C° 0 mm 2 m/s 757 mmHg 68%
20:00 +22°C° 0 mm 1 m/s 758 mmHg 68%
21:00 +21°C° 0 mm 1 m/s 758 mmHg 68%
22:00 +20°C° 0 mm 1 m/s 758 mmHg 69%
23:00 +19°C° 0 mm 1 m/s 758 mmHg 72%

27 Junho, Domingo

Tempo Temperatura Precipitação Vento Pressão Humidade
00:00 +19°C° 0 mm 1 m/s 758 mmHg 74%
01:00 +18°C° 0 mm 1 m/s 758 mmHg 77%
02:00 +16°C° 0 mm 1 m/s 758 mmHg 78%
03:00 +16°C° 0 mm 1 m/s 758 mmHg 79%
04:00 +16°C° 0 mm 1 m/s 758 mmHg 80%
05:00 +18°C° 0 mm 1 m/s 758 mmHg 74%
06:00 +20°C° 0 mm 1 m/s 758 mmHg 68%
07:00 +20°C° 0 mm 0 m/s 758 mmHg 63%
08:00 +21°C° 0 mm 0 m/s 758 mmHg 58%
09:00 +23°C° 0 mm 0 m/s 758 mmHg 53%
10:00 +24°C° 0 mm 0 m/s 758 mmHg 48%
11:00 +27°C° 0 mm 1 m/s 758 mmHg 47%
12:00 +27°C° 0 mm 1 m/s 758 mmHg 46%
13:00 +28°C° 0 mm 1 m/s 758 mmHg 45%
14:00 +27°C° 0 mm 1 m/s 758 mmHg 48%
15:00 +27°C° 0 mm 1 m/s 757 mmHg 51%
16:00 +27°C° 0 mm 1 m/s 757 mmHg 54%
17:00 +26°C° 0 mm 1 m/s 757 mmHg 58%
18:00 +25°C° 0 mm 1 m/s 757 mmHg 61%
19:00 +24°C° 0 mm 1 m/s 757 mmHg 65%
20:00 +23°C° 0 mm 1 m/s 757 mmHg 66%
21:00 +22°C° 0 mm 1 m/s 757 mmHg 67%
22:00 +19°C° 0 mm 0 m/s 758 mmHg 69%
23:00 +20°C° 0 mm 1 m/s 758 mmHg 71%

28 Junho, Segunda-feira

Tempo Temperatura Precipitação Vento Pressão Humidade
00:00 +20°C° 0 mm 1 m/s 758 mmHg 74%
01:00 +19°C° 0 mm 1 m/s 758 mmHg 76%
02:00 +19°C° 0 mm 1 m/s 758 mmHg 77%
03:00 +19°C° 0 mm 1 m/s 758 mmHg 77%
04:00 +19°C° 0 mm 1 m/s 758 mmHg 78%
05:00 +20°C° 0 mm 1 m/s 758 mmHg 74%
06:00 +22°C° 0 mm 1 m/s 758 mmHg 69%
07:00 +24°C° 0 mm 2 m/s 758 mmHg 65%
08:00 +25°C° 0 mm 2 m/s 758 mmHg 60%
09:00 +26°C° 0 mm 2 m/s 758 mmHg 55%
10:00 +28°C° 0 mm 2 m/s 758 mmHg 51%
11:00 +29°C° 0 mm 2 m/s 758 mmHg 48%
12:00 +29°C° 0 mm 2 m/s 757 mmHg 46%
13:00 +30°C° 0 mm 2 m/s 757 mmHg 43%
14:00 +30°C° 0 mm 2 m/s 757 mmHg 46%
15:00 +29°C° 0 mm 2 m/s 757 mmHg 48%
16:00 +29°C° 0 mm 2 m/s 757 mmHg 50%
17:00 +28°C° 0 mm 2 m/s 757 mmHg 55%
18:00 +27°C° 0 mm 2 m/s 757 mmHg 60%
19:00 +26°C° 0 mm 2 m/s 757 mmHg 65%
20:00 +25°C° 0 mm 3 m/s 757 mmHg 67%
21:00 +22°C° 0 mm 3 m/s 757 mmHg 68%
22:00 +21°C° 0 mm 3 m/s 757 mmHg 69%
23:00 +21°C° 0 mm 3 m/s 756 mmHg 71%

29 Junho, Terça-feira

Tempo Temperatura Precipitação Vento Pressão Humidade
00:00 +20°C° 0 mm 3 m/s 756 mmHg 74%
01:00 +20°C° 0 mm 3 m/s 756 mmHg 76%
02:00 +20°C° 0 mm 3 m/s 756 mmHg 77%
03:00 +19°C° 0 mm 2 m/s 756 mmHg 78%
04:00 +19°C° 0 mm 2 m/s 756 mmHg 80%
05:00 +21°C° 0 mm 3 m/s 756 mmHg 75%
06:00 +24°C° 0 mm 3 m/s 756 mmHg 69%
07:00 +26°C° 0 mm 3 m/s 757 mmHg 64%
08:00 +27°C° 0 mm 4 m/s 756 mmHg 60%
09:00 +28°C° 0 mm 4 m/s 756 mmHg 55%
10:00 +30°C° 0 mm 4 m/s 756 mmHg 50%
11:00 +32°C° 0 mm 4 m/s 756 mmHg 48%
12:00 +32°C° 0 mm 4 m/s 756 mmHg 46%
13:00 +33°C° 0 mm 4 m/s 756 mmHg 45%
14:00 +33°C° 0 mm 4 m/s 756 mmHg 45%
15:00 +33°C° 0 mm 3 m/s 755 mmHg 45%
16:00 +33°C° 0 mm 3 m/s 755 mmHg 45%
17:00 +31°C° 0 mm 3 m/s 755 mmHg 51%
18:00 +29°C° 0 mm 3 m/s 755 mmHg 58%
19:00 +28°C° 0 mm 3 m/s 755 mmHg 64%
20:00 +26°C° 0.6 mm 3 m/s 755 mmHg 71%
21:00 +24°C° 0.6 mm 3 m/s 756 mmHg 77%
22:00 +22°C° 0.6 mm 3 m/s 756 mmHg 84%
23:00 +21°C° 0.3 mm 2 m/s 756 mmHg 86%
Mostrar mais

Necessitamos do seu Consentimento

A Meteoprog e os seus Fornecedores de Serviços podem armazenar e aceder a dados pessoais como cookies, identificadores do dispositivo ou outras tecnologias semelhantes existentes no seu dispositivo e processar estes dados para personalizar conteúdos e anúncios, assim como funcionalidades nas redes sociais e análise de tráfego.

  • Armazenar e/ou aceder a informações no seu dispositivo

    Os cookies, identificadores do dispositivo ou outras informações podem ser armazenados ou acedidos no seu dispositivo, para os fins acima indicados.

  • Anúncios e conteúdos personalizados, medição de anúncios e conteúdos, dados sobre o público-alvo e desenvolvimento de produtos

    Os anúncios e os conteúdos podem ser personalizados com base num perfil. Podem ser adicionados dados adicionais para uma maior personalização dos anúncios e dos conteúdos. A eficácia dos anúncios e dos conteúdos pode ser medida. Podem ser obtidas informações sobre o público que visualizou os anúncios e os conteúdos. Estes dados podem ser usados para desenvolver ou melhorar sistemas, softwares ou a experiência do utilizador.

Ao clicar em "Eu concordo”, permitirá o uso de cookies, identificadores do dispositivo e web beacons mencionados ou outras tecnologias semelhantes. As configurações do navegador do seu dispositivo podem ser alteradas.

Para certos fins, podem ser invocados interesses legítimos ao invés de consentimento. Pode ler mais informação sobre este assunto na nossa Política de Privacidade e Cookies.